Stations météo

réclame
Mon MeteoGroup
Lille, France (7015): Température de l'air & dewpoint: 15.06.2018 01:00:00 - 21.06.2018 01:00:00 (CEST)Lille, France (7015): Température de l'air 5cm: 15.06.2018 01:00:00 - 21.06.2018 01:00:00 (CEST)Lille, France (7015): Température de l'air -20cm & Température de l'air -100cm: 15.06.2018 01:00:00 - 21.06.2018 01:00:00 (CEST)Lille, France (7015): Vitesse du vent & gusts: 15.06.2018 01:00:00 - 21.06.2018 01:00:00 (CEST)Lille, France (7015): Direction du vent: 15.06.2018 01:00:00 - 21.06.2018 01:00:00 (CEST)Lille, France (7015): reduced air pressure: 15.06.2018 01:00:00 - 21.06.2018 01:00:00 (CEST)Lille, France (7015): visibility: 15.06.2018 01:00:00 - 21.06.2018 01:00:00 (CEST)Lille, France (7015): Ensoleillement: 15.06.2018 01:00:00 - 21.06.2018 01:00:00 (CEST)Lille, France (7015): Quantités de précipitations: 15.06.2018 01:00:00 - 21.06.2018 01:00:00 (CEST)
Date & Time tt [°C] td [°C] tt 5cm [°C] tt -20cm [°C] tt -100cm [°C] ff [km/h] ff [knt] fx [km/h] fx [knt] dd ppp [hPa] vv [km] sd [min] rr [mm]
21.06.2018 01:00:00 - - - - - - - - - - - - - -
21.06.2018 00:00:00 17,0 14,5 16,2 21,6 16,8 10 6 14 7 WSW 1019,2 37 0 0,0
20.06.2018 23:00:00 18,3 14,0 17,3 22,3 16,9 10 6 18 10 SW 1019,4 43 0 0,0
20.06.2018 22:00:00 20,1 13,8 19,1 23,0 16,8 9 5 26 14 WSW 1019,2 53 0 0,0
20.06.2018 21:00:00 22,7 14,0 23,5 23,6 16,8 18 10 28 15 W 1019,2 25 35 0,0
20.06.2018 20:00:00 24,5 14,3 26,9 23,9 16,8 16 8 30 16 W 1019,2 14 60 0,0
20.06.2018 19:00:00 25,4 14,8 28,8 23,9 16,8 18 10 30 16 W 1019,5 15 60 0,0
20.06.2018 18:00:00 25,6 15,9 28,6 23,4 16,8 16 9 29 16 WSW 1019,9 16 53 0,0
20.06.2018 17:00:00 24,7 15,6 29,5 22,6 16,8 15 8 29 16 W 1020,4 16 60 0,0
20.06.2018 16:00:00 24,4 16,9 25,7 21,6 16,8 14 8 28 15 SW 1020,7 18 50 0,0
20.06.2018 15:00:00 22,9 16,0 25,4 20,7 16,8 17 9 31 17 WSW 1021,4 21 18 0,0
20.06.2018 14:00:00 22,3 16,3 24,2 19,9 16,8 18 10 32 17 WSW 1021,9 23 32 0,0
20.06.2018 13:00:00 21,0 15,8 22,5 19,3 16,8 16 9 28 15 WSW 1022,3 27 11 0,0
20.06.2018 12:00:00 20,0 16,0 21,0 18,8 16,8 17 9 29 16 WSW 1022,6 20 0 0,0
20.06.2018 11:00:00 18,8 15,5 19,3 18,5 16,8 14 7 25 13 SW 1022,9 32 0 0,0
20.06.2018 10:00:00 17,9 15,3 18,0 18,3 16,8 16 8 25 14 SW 1023,0 30 0 0,0
20.06.2018 09:00:00 17,1 15,1 17,1 18,3 16,8 12 7 23 13 SW 1022,9 21 0 0,0
20.06.2018 08:00:00 16,7 15,1 17,0 18,3 16,8 14 8 24 13 SW 1022,9 20 0 0,0
20.06.2018 07:00:00 16,8 14,8 16,6 18,3 16,8 13 7 21 11 SSW 1022,8 35 0 0,0
20.06.2018 06:00:00 16,5 14,5 16,3 18,4 16,8 10 6 19 11 SSW 1023,0 50 0 0,0
20.06.2018 05:00:00 16,4 14,4 16,3 18,5 16,8 8 4 21 11 SSW 1023,1 54 0 0,0
20.06.2018 04:00:00 16,7 14,5 16,6 18,6 16,8 8 5 19 11 SW 1023,4 60 0 0,0
20.06.2018 03:00:00 17,0 14,5 16,8 18,7 16,8 10 6 19 11 SW 1023,7 60 0 0,0
20.06.2018 02:00:00 17,1 14,4 17,0 18,8 16,8 14 7 24 13 WSW 1024,1 60 0 0,0
20.06.2018 01:00:00 17,3 14,6 17,2 18,9 16,8 11 6 19 10 WSW 1024,4 60 0 0,0
20.06.2018 00:00:00 17,5 14,4 17,4 19,1 16,8 9 5 21 11 WSW 1024,6 60 0 0,0
19.06.2018 23:00:00 17,8 14,3 17,6 19,2 16,8 16 9 27 14 WSW 1024,8 60 0 0,0
19.06.2018 22:00:00 18,2 14,5 18,1 19,5 16,8 15 8 25 13 WSW 1024,4 60 0 0,0
19.06.2018 21:00:00 18,6 14,7 18,5 19,6 16,8 16 9 27 15 WSW 1024,5 60 0 0,0
19.06.2018 20:00:00 18,9 15,0 19,0 19,7 16,8 15 8 27 14 SW 1024,6 58 0 0,0
19.06.2018 19:00:00 19,3 15,0 19,6 19,8 16,8 16 9 27 15 WSW 1024,6 57 0 0,0
19.06.2018 18:00:00 19,7 15,3 20,0 19,9 16,8 16 9 24 13 WSW 1024,8 57 0 0,0
19.06.2018 17:00:00 19,7 15,3 20,0 19,8 16,8 13 7 22 12 WSW 1024,9 54 0 0,0
19.06.2018 16:00:00 20,1 15,3 21,1 19,6 16,8 14 7 26 14 WSW 1025,0 54 0 0,0
19.06.2018 15:00:00 19,6 14,8 20,8 19,4 16,8 18 10 27 15 W 1025,1 57 0 0,0
19.06.2018 14:00:00 19,7 14,5 20,6 19,1 16,8 17 9 28 15 SW 1025,1 52 0 0,0
19.06.2018 13:00:00 19,6 14,8 20,1 18,8 16,8 16 8 27 15 SW 1025,1 48 0 0,0
19.06.2018 12:00:00 18,8 15,1 19,5 18,5 16,8 17 9 27 15 WSW 1025,0 51 0 0,0
19.06.2018 11:00:00 18,1 15,0 18,7 18,3 16,9 16 9 27 15 SW 1024,9 44 0 0,0
19.06.2018 10:00:00 17,7 15,0 17,7 18,1 16,9 15 8 27 15 SW 1025,0 37 0 0,0
19.06.2018 09:00:00 17,1 14,7 17,1 18,1 16,9 17 9 26 14 WSW 1024,5 36 0 0,0
19.06.2018 08:00:00 16,8 14,8 16,6 18,0 16,9 15 8 24 13 SW 1024,2 42 0 0,0
19.06.2018 07:00:00 16,4 14,6 16,2 18,0 16,8 16 9 24 13 SW 1023,9 45 0 0,0
19.06.2018 06:00:00 16,2 14,6 16,2 18,1 16,9 14 8 24 13 SW 1023,6 37 0 0,0
19.06.2018 05:00:00 16,3 14,5 16,2 18,1 16,8 12 7 30 16 WSW 1023,1 41 0 0,0
19.06.2018 04:00:00 16,2 14,4 15,7 18,2 16,8 20 11 35 19 WSW 1022,9 45 0 0,0
19.06.2018 03:00:00 15,7 14,2 15,1 18,4 16,8 13 7 24 13 WSW 1022,7 30 0 0,0
19.06.2018 02:00:00 15,8 13,8 15,1 18,6 16,8 13 7 29 16 SW 1022,6 42 0 0,0
19.06.2018 01:00:00 15,6 13,3 14,8 18,8 16,9 14 8 29 16 SW 1022,8 47 0 0,0
19.06.2018 00:00:00 15,1 12,2 14,2 19,1 16,9 10 6 23 13 WSW 1023,0 47 0 0,0
18.06.2018 23:00:00 15,1 11,1 14,3 19,6 16,8 13 7 33 18 WSW 1022,9 55 0 0,0
18.06.2018 22:00:00 16,1 10,8 15,4 20,1 16,8 23 13 39 21 WSW 1022,6 57 0 0,0
18.06.2018 21:00:00 17,7 11,0 18,2 20,5 16,8 25 13 38 21 WSW 1022,1 10 46 0,0
18.06.2018 20:00:00 19,0 11,8 20,7 20,5 16,8 25 14 41 22 WSW 1021,8 9 60 0,0
18.06.2018 19:00:00 19,2 11,7 19,3 20,1 16,9 24 13 46 25 WSW 1021,7 13 42 0,0
18.06.2018 18:00:00 19,0 11,8 19,1 19,8 16,8 28 15 46 25 WSW 1021,8 29 7 0,0
18.06.2018 17:00:00 18,1 11,6 18,8 19,7 16,8 30 16 48 26 WSW 1022,1 43 2 0,0
18.06.2018 16:00:00 18,2 12,6 18,9 19,6 16,8 25 14 50 27 SW 1022,1 31 1 0,0
18.06.2018 15:00:00 18,6 12,8 19,2 19,3 16,8 25 13 42 23 WSW 1022,0 38 0 0,0
18.06.2018 14:00:00 17,8 12,3 18,6 19,1 16,8 24 13 46 25 WSW 1022,0 48 0 0,0
18.06.2018 13:00:00 18,1 12,1 18,9 18,9 16,8 32 17 50 27 WSW 1021,7 31 4 0,0
18.06.2018 12:00:00 17,9 13,6 17,9 18,6 16,8 24 13 40 22 WSW 1021,3 38 0 0,0
18.06.2018 11:00:00 18,1 14,0 17,7 18,3 16,8 24 13 39 21 SW 1020,9 37 15 0,0
18.06.2018 10:00:00 17,3 14,6 16,5 18,1 16,8 19 10 36 19 SW 1020,5 20 1 0,0
18.06.2018 09:00:00 17,0 14,5 16,9 18,0 16,8 16 8 26 14 SW 1020,3 24 0 0,0
18.06.2018 08:00:00 16,5 14,0 16,4 18,0 16,8 18 10 29 16 SSW 1019,8 29 0 0,0
18.06.2018 07:00:00 16,3 13,6 16,2 18,0 16,8 18 10 28 15 SSW 1019,8 46 0 0,0
18.06.2018 06:00:00 16,4 12,9 16,0 18,1 16,8 13 7 29 16 SSW 1019,7 52 0 0,0
18.06.2018 05:00:00 16,2 12,2 15,7 18,2 16,8 14 8 28 15 SSW 1019,4 57 0 0,0
18.06.2018 04:00:00 15,9 11,9 14,8 18,3 16,8 11 6 21 12 SSW 1019,5 55 0 0,0
18.06.2018 03:00:00 14,9 11,3 13,6 18,5 16,8 8 5 13 7 S 1019,6 17 0 0,0
18.06.2018 02:00:00 15,3 11,1 14,6 18,8 16,8 7 4 14 8 S 1019,7 18 0 0,0
18.06.2018 01:00:00 15,8 11,2 15,4 19,0 16,8 9 5 18 10 S 1020,0 19 0 0,0
18.06.2018 00:00:00 16,0 10,3 15,2 19,2 16,8 10 5 18 10 SW 1020,4 59 0 0,0
17.06.2018 23:00:00 16,3 9,9 16,0 19,6 16,8 11 6 20 11 SW 1020,5 59 0 0,0
17.06.2018 22:00:00 16,7 10,3 16,3 19,8 16,8 10 6 20 11 WSW 1020,0 42 0 0,0
17.06.2018 21:00:00 17,3 10,2 17,2 20,2 16,8 11 6 32 18 WSW 1019,9 56 0 0,0
17.06.2018 20:00:00 18,0 9,6 18,4 20,4 16,8 17 9 32 17 WSW 1019,7 37 8 0,0
17.06.2018 19:00:00 18,5 9,3 19,0 20,4 16,8 23 12 37 20 WSW 1019,5 48 2 0,0
17.06.2018 18:00:00 17,8 9,9 18,8 20,4 16,8 19 10 39 21 W 1019,7 49 0 0,0
17.06.2018 17:00:00 17,9 9,0 19,1 20,3 16,8 26 14 45 24 WSW 1019,7 29 6 0,0
17.06.2018 16:00:00 19,2 9,1 20,8 19,8 16,8 25 13 41 22 SW 1019,4 26 30 0,0
17.06.2018 15:00:00 19,2 9,4 20,1 19,2 16,8 24 13 43 23 WSW 1019,3 20 18 0,0
17.06.2018 14:00:00 18,3 9,6 19,2 18,6 16,8 22 12 37 20 SW 1018,9 27 20 0,0
17.06.2018 13:00:00 16,5 9,9 15,6 18,3 16,8 19 10 36 19 SW 1019,0 31 0 0,0
17.06.2018 12:00:00 16,0 9,4 16,3 18,1 16,8 21 12 35 19 WSW 1018,8 38 0 0,0
17.06.2018 11:00:00 15,6 9,9 15,9 18,0 16,8 17 9 32 18 SW 1018,6 32 0 0,0
17.06.2018 10:00:00 15,3 10,3 15,1 17,8 16,8 19 10 32 17 SSW 1018,5 35 0 0,0
17.06.2018 09:00:00 14,7 10,3 14,9 17,7 16,8 19 10 33 18 SW 1018,3 47 18 0,0
17.06.2018 08:00:00 13,8 10,4 13,4 17,8 16,8 18 10 29 16 SSW 1017,5 24 24 0,0
17.06.2018 07:00:00 13,2 10,0 12,2 17,9 16,8 16 8 23 13 SW 1017,5 38 24 0,0
17.06.2018 06:00:00 12,7 9,7 12,2 18,2 16,8 13 7 22 12 SW 1017,4 37 0 0,0
17.06.2018 05:00:00 13,5 9,9 12,8 18,5 16,8 17 9 27 15 WSW 1017,5 37 0 0,0
17.06.2018 04:00:00 13,8 10,8 13,3 18,8 16,8 16 9 25 14 WSW 1017,2 35 0 0,0
17.06.2018 03:00:00 14,6 11,0 14,0 19,1 16,8 14 8 23 12 WSW 1016,9 48 0 0,0
17.06.2018 02:00:00 14,6 11,2 13,9 19,5 16,8 14 8 23 12 SW 1016,9 59 0 0,0
17.06.2018 01:00:00 15,1 10,7 14,4 19,9 16,8 13 7 25 14 SW 1016,6 60 0 0,0
17.06.2018 00:00:00 16,3 10,2 16,0 20,3 16,8 12 6 27 14 SW 1016,7 60 0 0,0
16.06.2018 23:00:00 16,6 9,8 15,1 20,7 16,8 11 6 18 10 SW 1016,7 60 0 0,0
16.06.2018 22:00:00 16,3 9,0 15,2 21,3 16,8 8 5 25 13 SW 1016,6 20 0 0,0
16.06.2018 21:00:00 17,9 8,7 17,6 21,8 16,8 18 10 36 19 WSW 1016,5 23 30 0,0
16.06.2018 20:00:00 19,1 9,0 19,0 22,2 16,8 19 10 43 23 W 1016,2 35 35 0,0
16.06.2018 19:00:00 19,6 8,9 20,6 22,3 16,8 24 13 40 22 WSW 1016,1 30 19 0,0
16.06.2018 18:00:00 19,7 9,0 21,2 22,4 16,8 25 13 41 22 WSW 1016,1 14 21 0,0
16.06.2018 17:00:00 20,1 8,7 22,1 22,0 16,8 24 13 44 24 W 1016,0 16 37 0,0
16.06.2018 16:00:00 20,2 9,1 21,4 21,6 16,8 23 12 42 23 W 1015,8 18 20 0,0
16.06.2018 15:00:00 20,5 10,0 22,3 21,0 16,8 22 12 36 20 W 1015,7 17 19 0,0
16.06.2018 14:00:00 20,7 10,2 23,4 20,2 16,7 21 11 34 18 WSW 1015,8 17 46 0,0
16.06.2018 13:00:00 19,6 10,3 21,9 19,3 16,8 15 8 31 17 SW 1015,8 18 39 0,0
16.06.2018 12:00:00 19,2 11,7 20,0 18,3 16,7 16 8 29 16 SSW 1016,1 27 57 0,0
16.06.2018 11:00:00 16,6 11,3 16,2 17,9 16,7 13 7 26 14 SSW 1016,3 32 19 0,0
16.06.2018 10:00:00 14,6 11,2 14,5 17,7 16,7 14 8 28 15 SW 1016,5 21 0 0,0
16.06.2018 09:00:00 13,6 11,3 13,8 17,7 16,7 11 6 21 11 SW 1016,6 20 0 0,0
16.06.2018 08:00:00 12,3 10,5 12,0 17,8 16,8 9 5 14 7 SSE 1015,9 9 15 0,0
16.06.2018 07:00:00 11,6 10,0 10,9 17,9 16,7 7 4 9 5 SE 1016,0 20 30 0,0
16.06.2018 06:00:00 11,5 9,6 10,3 18,2 16,8 5 3 9 5 S 1016,2 26 0 0,0
16.06.2018 05:00:00 12,0 9,2 11,4 18,6 16,7 8 4 13 7 SW 1016,5 30 0 0,0
16.06.2018 04:00:00 12,6 9,1 11,9 18,9 16,8 8 5 15 8 SSW 1016,5 38 0 0,0
16.06.2018 03:00:00 13,1 9,2 12,7 19,3 16,8 9 5 14 8 SW 1016,8 40 0 0,0
16.06.2018 02:00:00 13,8 8,6 13,6 19,7 16,8 8 4 15 8 WSW 1017,1 49 0 0,0
16.06.2018 01:00:00 14,5 7,3 14,3 20,1 16,8 11 6 18 10 W 1017,1 58 0 0,0
16.06.2018 00:00:00 15,5 9,2 15,2 20,6 16,8 11 6 21 11 W 1016,9 51 0 0,0
15.06.2018 23:00:00 16,1 9,5 15,7 21,2 16,8 6 4 27 15 W 1017,0 57 0 0,0
15.06.2018 22:00:00 17,0 10,1 16,5 21,8 16,8 14 8 26 14 WNW 1016,9 51 0 0,0
15.06.2018 21:00:00 19,3 11,1 18,9 22,5 16,8 18 10 29 16 W 1016,3 39 27 0,0
15.06.2018 20:00:00 22,0 11,7 22,3 22,8 16,8 19 11 29 15 W 1016,2 30 49 0,0
15.06.2018 19:00:00 22,9 11,3 25,1 22,9 16,8 15 8 27 15 W 1016,1 33 44 0,0
15.06.2018 18:00:00 23,3 12,0 23,4 22,6 16,8 20 11 29 15 W 1016,2 39 35 0,0
15.06.2018 17:00:00 22,9 10,0 24,3 22,3 16,8 9 5 22 12 SSW 1016,2 42 39 0,0
15.06.2018 16:00:00 22,5 10,9 23,7 21,7 16,8 3 2 21 11 SSW 1016,4 46 26 0,0
15.06.2018 15:00:00 22,7 11,1 23,4 20,8 16,8 11 6 22 12 SW 1016,7 20 28 0,0
15.06.2018 14:00:00 22,2 11,3 24,9 19,9 16,8 7 4 22 12 SSW 1016,7 20 51 0,0
15.06.2018 13:00:00 20,8 12,7 25,3 18,8 16,8 10 6 24 13 SW 1016,9 11 60 0,0
15.06.2018 12:00:00 19,1 13,3 22,0 17,8 16,8 11 6 21 11 S 1017,1 11 60 0,0
15.06.2018 11:00:00 16,4 12,7 18,2 17,1 16,8 8 4 16 9 S 1017,3 7 53 0,0
15.06.2018 10:00:00 14,4 12,1 17,3 16,5 16,8 9 5 18 10 WSW 1017,3 9 37 0,0
15.06.2018 09:00:00 14,1 12,1 14,9 16,2 16,8 9 5 13 7 S 1016,9 16 54 0,0
15.06.2018 08:00:00 12,1 11,3 11,6 16,1 16,8 6 4 12 7 SSW 1016,8 9 54 0,0
15.06.2018 07:00:00 10,7 10,4 9,1 16,2 16,8 6 4 10 5 S 1016,5 14 31 0,0
15.06.2018 06:00:00 10,2 9,9 8,0 16,4 16,8 4 2 8 4 E 1016,5 11 0 0,0
15.06.2018 05:00:00 9,9 9,1 8,6 16,6 16,8 4 2 8 5 S 1016,2 6 0 0,0
15.06.2018 04:00:00 10,9 10,0 9,7 16,9 16,8 7 4 9 5 S 1016,1 13 0 0,0
15.06.2018 03:00:00 11,5 10,2 9,9 17,2 16,8 6 4 9 5 S 1016,2 17 0 0,0
15.06.2018 02:00:00 11,9 10,3 10,2 17,5 16,8 9 5 11 6 S 1016,2 20 0 0,0
15.06.2018 01:00:00 12,7 10,6 11,0 17,9 16,8 8 4 10 6 S 1016,7 20 0 0,0

tt = Température de l'air
td = dewpoint
tt 5cm = Température de l'air 5cm
tt -20cm = Température de l'air -20cm
tt -100cm = Température de l'air -100cm
ff = Vitesse du vent
fx = gusts
dd = Direction du vent
ppp = reduced air pressure
vv = visibility
sd = Ensoleillement
rr = Quantités de précipitations

stations d'obs. à proximité